Hourly Data Report for October 24, 2014

All times are specified in Local Standard Time (LST). Add 1 hour to adjust for Daylight Saving Time where and when it is observed.

BATHURST A
NEW BRUNSWICK

47°37'47.000" N
65°44'20.000" W
58.80 m
8100505
71574
ZBF

Download Data

Hourly Data (October 2014)
Hourly Data Report for October 24, 2014
Temp Definition
°C
Dew Point Temp Definition
°C
Rel Hum Definition
%
Wind Dir Definition
10's deg

Wind Spd Definition
km/h
Visibility Definition
km
Stn Press Definition
kPa
Hmdx Definition


Wind Chill Definition


Weather Definition


TIME
00:00 Legend Double Dagger 6.3 3.5 82 5 16 24.1 101.03     LegendNANA
01:00 Legend Double Dagger 6.5 3.0 78 4 19 24.1 100.92     LegendNANA
02:00 Legend Double Dagger 6.7 1.8 71 5 22 24.1 100.81     Cloudy
03:00 Legend Double Dagger 7.1 1.4 67 4 16 24.1 100.67     LegendNANA
04:00 Legend Double Dagger 7.3 1.0 64 4 15 24.1 100.61     LegendNANA
05:00 Legend Double Dagger 7.6 0.4 60 4 16 24.1 100.55     Cloudy
06:00 Legend Double Dagger 7.5 0.0 59 5 17 24.1 100.51     LegendNANA
07:00 Legend Double Dagger 7.4 -1.8 52 4 24 24.1 100.46     LegendNANA
08:00 Legend Double Dagger 7.7 -2.1 50 5 18 24.1 100.42     Rain
09:00 Legend Double Dagger 6.4 -0.1 63 3 14 14.5 100.37     Rain
10:00 Legend Double Dagger 6.0 1.4 72 5 9 12.9 100.40     Rain
11:00 Legend Double Dagger 5.3 1.6 77 2 7 14.5 100.26     Rain
12:00 Legend Double Dagger 6.4 2.1 74 36 3 19.3 100.15     Rain
13:00 Legend Double Dagger 5.7 2.7 81 34 8 6.4 100.09     Moderate Rain,Fog
14:00 Legend Double Dagger 5.2 3.5 89 1 8 6.4 100.04     Rain,Fog
15:00 Legend Double Dagger 4.9 3.3 89 1 14 9.7 99.97     Rain,Fog
16:00 Legend Double Dagger 4.8 3.6 92 32 4 8.1 99.90     Rain,Fog
17:00 Legend Double Dagger 4.8 3.9 94 31 3 8.1 99.86     Rain,Fog
18:00 Legend Double Dagger 5.2 4.0 92 36 10 8.1 99.81     Rain,Fog
19:00 Legend Double Dagger 5.2 4.5 95 36 7 8.1 99.80     Rain,Fog
20:00 Legend Double Dagger 5.3 4.4 94 35 10 8.1 99.77     Rain,Fog
21:00 Legend Double Dagger 5.0 4.1 94 35 11 8.1 99.74     Rain,Fog
22:00 Legend Double Dagger 4.9 4.2 95 34 10 4.8 99.69     Rain,Fog
23:00 Legend Double Dagger 4.9 4.3 96 33 9 4.8 99.64     Rain,Fog

Notes on Data Quality.

Legend

  • E = Estimated
  • M = Missing
  • NA = Not Available
  • ‡ = Partner data that is not subject to review by the National Climate Archives
Date modified: